Total_Precipitation_Accumulation
1.74 1.76 1.78 1.63 1.51 1.45 1.49 1.70 2.03 1.80 1.17 0.88 0.91 0.98 1.08 1.20 1.40 1.26 1.17 1.29 1.36 1.43 1.55 1.63 1.72 1.84 2.11 2.73 3.71 5.06 5.71 5.01 4.11 3.89 3.92 4.16 4.53 5.01
1.62 1.69 1.72 1.65 1.56 1.49 1.53 1.55 1.67 1.90 1.59 0.97 0.88 0.93 1.07 1.15 1.32 1.20 1.21 1.41 1.39 1.42 1.49 1.57 1.66 1.73 1.87 2.15 2.68 3.54 4.74 5.41 5.03 4.40 4.19 4.38 4.55 4.77
1.50 1.54 1.56 1.56 1.58 1.51 1.50 1.52 1.49 1.58 1.61 1.05 0.88 0.93 1.12 1.21 1.22 1.17 1.22 1.26 1.27 1.43 1.48 1.51 1.58 1.67 1.86 2.06 2.35 2.79 3.45 4.42 5.11 5.00 4.64 4.51 4.51 4.53
1.43 1.43 1.42 1.45 1.52 1.46 1.44 1.40 1.35 1.31 1.39 1.22 0.97 0.96 1.05 1.13 1.23 1.31 1.30 1.29 1.23 1.38 1.41 1.50 1.63 1.70 1.80 2.00 2.25 2.54 2.89 3.40 4.09 4.63 4.71 4.51 4.37 4.41
1.38 1.39 1.34 1.40 1.47 1.43 1.42 1.36 1.27 1.19 1.20 1.25 1.09 1.00 1.05 1.10 1.27 1.43 1.42 1.43 1.36 1.41 1.45 1.51 1.62 1.73 1.81 1.92 2.14 2.36 2.54 2.70 3.06 3.80 4.37 4.32 4.22 4.18
1.33 1.29 1.30 1.42 1.46 1.48 1.53 1.43 1.36 1.38 1.38 1.42 1.30 1.17 1.17 1.18 1.37 1.63 1.73 1.68 1.60 1.42 1.49 1.54 1.66 1.78 1.82 1.82 1.89 2.01 2.16 2.43 2.73 3.13 3.73 4.11 4.02 3.97
1.28 1.26 1.31 1.46 1.53 1.70 1.84 1.72 1.69 1.80 1.77 1.75 1.63 1.53 1.45 1.46 1.54 1.58 1.77 1.80 1.79 1.61 1.50 1.42 1.45 1.47 1.57 1.70 1.77 1.83 1.95 2.13 2.40 2.72 3.11 3.57 3.88 3.94
1.31 1.25 1.26 1.41 1.45 1.57 1.78 1.88 1.94 2.06 2.14 2.10 1.98 1.83 1.56 1.46 1.49 1.64 1.75 1.95 2.03 1.70 1.60 1.56 1.49 1.59 1.54 1.54 1.77 1.81 1.88 2.05 2.24 2.49 2.78 3.06 3.44 3.83
1.30 1.29 1.29 1.33 1.42 1.38 1.52 1.60 1.64 1.79 2.02 2.13 2.18 1.77 1.53 1.46 1.69 1.90 1.86 1.95 1.91 1.80 1.93 1.90 1.59 1.63 1.56 1.68 1.92 1.84 1.85 1.96 2.10 2.26 2.48 2.73 3.01 3.36
1.29 1.27 1.27 1.29 1.39 1.60 1.57 1.52 1.42 1.44 1.64 1.83 2.10 1.92 1.72 1.75 2.10 2.43 2.52 2.39 1.97 1.76 1.94 2.17 1.70 1.60 1.66 1.77 1.96 1.89 1.81 1.83 1.94 2.09 2.24 2.39 2.60 2.89
1.29 1.25 1.27 1.27 1.54 1.82 1.72 1.57 1.38 1.29 1.40 1.74 2.05 2.19 2.24 2.37 2.61 2.93 3.09 2.92 2.43 1.86 1.82 2.12 1.91 1.71 1.87 2.09 2.15 2.10 1.86 1.79 1.86 1.98 2.04 2.07 2.25 2.55
1.30 1.26 1.41 1.51 1.72 1.86 1.68 1.63 1.72 1.47 1.31 1.38 1.48 1.60 1.67 1.84 2.24 2.52 2.84 2.96 2.58 2.33 1.93 2.06 2.18 2.19 2.51 2.35 2.20 2.03 1.82 1.77 1.80 1.88 1.92 1.90 2.01 2.03
1.34 1.29 1.28 1.57 1.68 1.76 1.78 1.71 1.94 1.82 1.53 1.54 1.52 1.47 1.45 1.55 1.75 2.04 2.47 2.86 2.91 2.58 2.10 2.43 2.72 2.50 2.63 2.47 2.33 2.22 1.85 1.64 1.64 1.77 1.92 1.95 1.97 1.94
1.29 1.16 1.23 1.51 1.60 1.71 1.69 1.78 1.92 1.84 1.62 1.57 1.49 1.42 1.42 1.48 1.55 1.70 2.04 2.35 2.50 2.38 2.04 2.43 3.07 2.81 2.68 2.37 2.28 2.35 2.10 1.80 1.63 1.64 1.75 2.02 1.99 1.92
1.29 1.39 1.47 1.59 1.60 1.51 1.57 1.68 1.67 1.58 1.65 1.66 1.49 1.38 1.38 1.49 1.57 1.62 1.78 2.07 2.25 2.20 2.13 2.24 2.70 2.81 2.83 2.61 2.21 2.18 2.26 2.16 1.86 1.77 1.76 1.78 1.70 1.65
1.49 1.55 1.63 1.61 1.51 1.40 1.44 1.44 1.37 1.47 1.63 1.62 1.46 1.31 1.29 1.43 1.60 1.70 1.81 1.97 2.20 2.21 2.16 2.24 2.52 2.93 2.94 2.43 2.23 2.16 2.06 2.27 2.15 1.96 1.81 1.74 1.58 1.39
1.66 1.73 1.66 1.58 1.54 1.42 1.30 1.23 1.26 1.43 1.55 1.44 1.40 1.38 1.35 1.39 1.48 1.60 1.83 1.98 2.14 2.16 2.20 2.35 2.51 2.74 2.86 2.77 2.62 2.22 1.95 1.92 2.00 1.99 1.92 1.91 1.80 1.55
1.86 1.76 1.54 1.39 1.35 1.31 1.28 1.25 1.19 1.22 1.29 1.35 1.40 1.40 1.40 1.42 1.45 1.46 1.64 1.91 2.07 2.06 2.12 2.27 2.45 2.70 2.90 3.02 2.85 2.42 2.04 1.89 1.96 2.03 1.99 2.07 2.08 1.82
1.74 1.52 1.32 1.24 1.21 1.20 1.19 1.18 1.15 1.08 1.13 1.23 1.28 1.33 1.39 1.44 1.47 1.48 1.53 1.69 1.88 2.00 2.10 2.21 2.40 2.69 2.88 2.93 2.96 2.63 2.34 2.06 2.02 2.20 2.21 2.13 2.13 1.95
1.45 1.37 1.28 1.19 1.17 1.20 1.22 1.21 1.17 1.14 1.17 1.20 1.22 1.23 1.32 1.45 1.48 1.46 1.47 1.60 1.77 1.89 1.99 2.10 2.34 2.66 2.93 2.81 2.83 2.80 2.70 2.42 2.20 2.31 2.33 2.21 2.13 2.10
1.29 1.27 1.24 1.22 1.21 1.21 1.24 1.26 1.25 1.23 1.19 1.20 1.20 1.19 1.21 1.34 1.38 1.33 1.35 1.50 1.68 1.81 1.90 1.90 2.04 2.33 2.59 2.65 2.59 2.52 2.68 2.77 2.47 2.42 2.44 2.46 2.40 2.30
1.20 1.24 1.25 1.24 1.25 1.26 1.28 1.29 1.28 1.23 1.19 1.19 1.16 1.15 1.16 1.22 1.27 1.27 1.34 1.44 1.51 1.62 1.74 1.78 1.86 2.14 2.51 2.76 2.65 2.43 2.51 2.68 2.70 2.55 2.51 2.61 2.82 2.88
1.32 1.30 1.29 1.27 1.26 1.29 1.31 1.29 1.26 1.19 1.12 1.12 1.12 1.11 1.16 1.21 1.20 1.23 1.29 1.36 1.45 1.52 1.62 1.77 1.87 2.04 2.32 2.53 2.63 2.52 2.40 2.43 2.52 2.56 2.73 2.59 2.24 2.09